Date String (YYYY-MM-DD hh:mm:ss) UTC,Instrument flags,Ambient pressure (hPa),Sample flow (lpm),Bypass flow (lpm),Sample temperature (°C),Ambient temperature (°C),ASC tube jacket temperature (°C),LED temperature (°C),Box temperature (°C),Sample RH (%),Span deviation,Mass concentration (μg/m³),Mass concentration (μg/m³),Mass concentration (μg/m³)
DateTimeUTC,F1_M11,P_M11,Q1_M11,Q2_M11,T1_M11,T2_M11,T3_M11,T4_M11,T5_M11,U1_M11,ZSPAN_M11,X0_M11,X2_M11,X1_M11
2022-09-23 16:00:00,,0825.6,5.00,0.00,30.5,29.3,00.0,39.2,32.4,10.6,0000.0,0006.30,0002.01,0001.34
2022-09-23 16:01:00,,0825.7,5.00,0.00,30.5,29.2,00.0,39.2,32.4,09.9,0000.0,0007.60,0002.00,0001.34
2022-09-23 16:02:00,,0825.7,5.02,0.00,30.6,29.2,00.0,39.2,32.3,09.3,0000.0,0008.02,0002.05,0001.35
2022-09-23 16:03:00,,0825.7,5.00,0.00,30.6,29.3,00.0,39.2,32.4,09.5,0000.0,0008.40,0002.06,0001.35
2022-09-23 16:04:00,,0825.7,4.99,0.00,30.6,29.3,00.0,39.2,32.4,09.7,0000.0,0008.41,0002.07,0001.35
2022-09-23 16:05:00,,0825.6,5.01,0.00,30.6,29.3,00.0,39.2,32.4,10.1,0000.0,0008.82,0002.08,0001.36
2022-09-23 16:06:00,,0825.6,4.99,0.00,30.6,29.3,00.0,39.2,32.4,10.7,0000.0,0008.97,0002.12,0001.37
2022-09-23 16:07:00,,0825.6,5.01,0.00,30.6,29.3,00.0,39.2,32.4,10.3,0000.0,0008.35,0002.12,0001.37
2022-09-23 16:08:00,,0825.7,5.00,0.00,30.6,29.3,00.0,39.2,32.4,11.2,0000.0,0008.25,0002.07,0001.36
2022-09-23 16:09:00,,0825.7,4.99,0.00,30.6,29.4,00.0,39.3,32.5,10.3,0000.0,0009.25,0002.11,0001.37
2022-09-23 16:10:00,,0825.7,5.01,0.00,30.7,29.4,00.0,39.3,32.5,10.7,0000.0,0009.57,0002.18,0001.37
2022-09-23 16:11:00,,0825.6,4.99,0.00,30.7,29.4,00.0,39.3,32.4,10.5,0000.0,0009.90,0002.19,0001.37
2022-09-23 16:12:00,,0825.6,5.00,0.00,30.7,29.4,00.0,39.3,32.5,10.3,0000.0,0009.18,0002.20,0001.37
2022-09-23 16:13:00,,0825.6,5.00,0.00,30.7,29.3,00.0,39.3,32.5,09.8,0000.0,0009.24,0002.14,0001.36
2022-09-23 16:14:00,,0825.5,5.00,0.00,30.7,29.3,00.0,39.3,32.5,10.2,0000.0,0009.05,0002.10,0001.35
2022-09-23 16:15:00,,0825.5,4.99,0.00,30.7,29.3,00.0,39.3,32.5,10.2,0000.0,0009.11,0002.06,0001.34
2022-09-23 16:16:00,,0825.6,5.00,0.00,30.7,29.3,00.0,39.3,32.5,10.4,0000.0,0008.70,0002.08,0001.33
2022-09-23 16:17:00,,0825.6,4.99,0.00,30.7,29.3,00.0,39.4,32.4,09.9,0000.0,0008.27,0002.02,0001.33
2022-09-23 16:18:00,,0825.7,4.99,0.00,30.7,29.3,00.0,39.4,32.5,09.9,0000.0,0008.52,0002.05,0001.33
2022-09-23 16:19:00,,0825.7,5.01,0.00,30.7,29.3,00.0,39.4,32.5,09.7,0000.0,0008.75,0002.04,0001.34
2022-09-23 16:20:00,,0825.7,5.00,0.00,30.7,29.3,00.0,39.4,32.5,09.8,0000.0,0007.94,0002.02,0001.34
2022-09-23 16:21:00,,0825.7,4.99,0.00,30.7,29.3,00.0,39.4,32.5,10.2,0000.0,0007.81,0001.99,0001.35
2022-09-23 16:22:00,,0825.8,5.01,0.00,30.7,29.3,00.0,39.4,32.5,11.1,0000.0,0007.91,0002.03,0001.36
2022-09-23 16:23:00,,0826.1,4.98,0.00,30.7,29.3,00.0,39.4,32.5,10.9,0000.0,0007.99,0002.09,0001.36
2022-09-23 16:24:00,,0825.8,5.01,0.00,30.8,29.3,00.0,39.4,32.5,10.3,0000.0,0007.70,0002.13,0001.38
2022-09-23 16:25:00,,0825.7,4.99,0.00,30.8,29.3,00.0,39.4,32.5,10.1,0000.0,0007.29,0002.14,0001.39
2022-09-23 16:26:00,,0826.1,5.01,0.00,30.8,29.3,00.0,39.4,32.5,09.8,0000.0,0006.97,0002.16,0001.40
2022-09-23 16:27:00,,0825.8,4.99,0.00,30.8,29.3,00.0,39.4,32.5,09.9,0000.0,0006.72,0002.08,0001.40
2022-09-23 16:28:00,,0825.8,5.01,0.00,30.8,29.4,00.0,39.4,32.6,10.1,0000.0,0006.80,0002.10,0001.40
2022-09-23 16:29:00,,0825.8,4.98,0.00,30.8,29.4,00.0,39.4,32.6,09.8,0000.0,0006.61,0002.11,0001.40
2022-09-23 16:30:00,,0825.8,5.01,0.00,30.8,29.4,00.0,39.4,32.6,09.6,0000.0,0006.21,0002.15,0001.39
2022-09-23 16:31:00,,0825.8,5.00,0.00,30.8,29.4,00.0,39.5,32.6,10.3,0000.0,0006.06,0002.13,0001.39
2022-09-23 16:32:00,,0825.6,4.99,0.00,30.8,29.4,00.0,39.5,32.6,10.3,0000.0,0005.51,0002.15,0001.40
2022-09-23 16:33:00,,0825.9,5.00,0.00,30.8,28.8,00.0,39.5,32.6,09.7,0000.0,0004.09,0002.15,0001.40
2022-09-23 16:34:00,,0825.8,5.01,0.00,30.8,27.3,00.0,39.4,32.4,09.7,0000.0,0004.40,0002.10,0001.39
2022-09-23 16:35:00,,0825.7,5.00,0.00,30.7,26.8,00.0,39.4,32.3,10.3,0000.0,0004.98,0002.13,0001.40
2022-09-23 16:36:00,,0825.6,4.99,0.00,30.6,27.0,00.0,39.3,32.2,10.6,0000.0,0005.27,0002.17,0001.40
2022-09-23 16:37:00,,0825.6,5.01,0.00,30.5,27.3,00.0,39.3,32.1,10.6,0000.0,0006.20,0002.16,0001.40
2022-09-23 16:38:00,,0825.6,4.99,0.00,30.4,27.6,00.0,39.2,32.0,10.7,0000.0,0007.03,0002.24,0001.41
2022-09-23 16:39:00,,0826.0,5.01,0.00,30.4,27.8,00.0,39.2,32.0,09.9,0000.0,0007.71,0002.28,0001.40
2022-09-23 16:40:00,,0825.8,5.01,0.00,30.4,28.1,00.0,39.1,32.0,10.2,0000.0,0007.69,0002.28,0001.41
2022-09-23 16:41:00,,0825.8,5.00,0.00,30.3,28.2,00.0,39.1,32.0,10.5,0000.0,0007.64,0002.23,0001.41
2022-09-23 16:42:00,,0825.9,4.99,0.00,30.3,28.3,00.0,39.1,32.0,11.0,0000.0,0007.95,0002.29,0001.42
2022-09-23 16:43:00,,0825.8,5.01,0.00,30.3,28.4,00.0,39.1,32.0,10.7,0000.0,0007.91,0002.29,0001.42
2022-09-23 16:44:00,,0825.8,5.00,0.00,30.3,28.5,00.0,39.0,32.0,10.8,0000.0,0008.00,0002.31,0001.43
2022-09-23 16:45:00,,0825.9,5.00,0.00,30.3,28.6,00.0,39.0,32.0,10.7,0000.0,0007.79,0002.29,0001.43
2022-09-23 16:46:00,,0825.8,4.99,0.00,30.3,28.6,00.0,39.0,32.0,10.4,0000.0,0007.37,0002.26,0001.42
2022-09-23 16:47:00,,0825.8,5.01,0.00,30.3,28.7,00.0,39.0,32.0,10.4,0000.0,0007.06,0002.22,0001.42
2022-09-23 16:48:00,,0825.9,4.99,0.00,30.3,28.7,00.0,39.0,32.1,10.5,0000.0,0006.85,0002.25,0001.42
2022-09-23 16:49:00,,0826.0,4.99,0.00,30.3,28.8,00.0,39.0,32.1,10.0,0000.0,0006.51,0002.21,0001.42
2022-09-23 16:50:00,,0826.1,5.01,0.00,30.3,28.8,00.0,39.0,32.1,10.1,0000.0,0005.72,0002.19,0001.43
2022-09-23 16:51:00,,0826.0,4.99,0.00,30.3,28.8,00.0,39.0,32.1,10.3,0000.0,0005.68,0002.20,0001.43
2022-09-23 16:52:00,,0826.0,5.00,0.00,30.3,28.8,00.0,39.0,32.1,10.7,0000.0,0005.79,0002.22,0001.43
2022-09-23 16:53:00,,0826.2,4.99,0.00,30.3,28.9,00.0,39.0,32.1,10.4,0000.0,0005.33,0002.23,0001.42
2022-09-23 16:54:00,,0826.0,5.00,0.00,30.3,28.9,00.0,39.0,32.1,10.6,0000.0,0005.35,0002.22,0001.42
2022-09-23 16:55:00,,0826.0,5.01,0.00,30.4,28.9,00.0,39.0,32.1,11.0,0000.0,0005.33,0002.19,0001.41
2022-09-23 16:56:00,,0826.0,4.99,0.00,30.4,28.9,00.0,39.0,32.2,10.7,0000.0,0005.29,0002.20,0001.42
2022-09-23 16:57:00,,0826.0,5.00,0.00,30.4,29.0,00.0,39.0,32.2,10.8,0000.0,0005.91,0002.24,0001.42
2022-09-23 16:58:00,,0826.1,4.99,0.00,30.4,29.0,00.0,39.0,32.2,10.6,0000.0,0006.39,0002.24,0001.43
2022-09-23 16:59:00,,0826.0,5.01,0.00,30.4,29.0,00.0,39.1,32.2,10.8,0000.0,0005.98,0002.29,0001.43
